| time (UTC) | temp F | wind direction | speed knots | gust knots | rain 1hr in | rain 24hr in | rain mn in | humidity % | barometer mb |
| 20260902213057 | 95 | 201 | 1.7 | 3.5 | 0.00 | 0.00 | 0.00 | 55 | 1017.1 |
| 20260902211555 | 95 | 213 | 0.0 | 7.8 | 0.00 | 0.00 | 0.00 | 56 | 1017.2 |
| 20260902210042 | 94 | 169 | 1.7 | 6.1 | 0.00 | 0.00 | 0.00 | 57 | 1017.2 |
| 20260902204544 | 94 | 205 | 1.7 | 6.1 | 0.00 | 0.00 | 0.00 | 57 | 1017.4 |
| 20260902203041 | 95 | 217 | 1.7 | 9.6 | 0.00 | 0.00 | 0.00 | 56 | 1017.4 |
| 20260902201547 | 95 | 265 | 1.7 | 6.1 | 0.00 | 0.00 | 0.00 | 55 | 1017.4 |
| 20260902200056 | 95 | 215 | 0.9 | 3.5 | 0.00 | 0.00 | 0.00 | 56 | 1017.5 |
| 20260902194542 | 94 | 261 | 0.9 | 5.2 | 0.00 | 0.00 | 0.00 | 56 | 1017.7 |
| 20260902193041 | 94 | 171 | 0.9 | 4.3 | 0.00 | 0.00 | 0.00 | 59 | 1017.9 |
| 20260902191541 | 95 | 143 | 1.7 | 6.1 | 0.00 | 0.00 | 0.00 | 56 | 1018.1 |
| 20260902190055 | 94 | 306 | 0.9 | 7.0 | 0.00 | 0.00 | 0.00 | 56 | 1018.2 |
| 20260902184554 | 94 | 245 | 1.7 | 6.1 | 0.00 | 0.00 | 0.00 | 58 | 1018.2 |
| 20260902183052 | 94 | 177 | 1.7 | 5.2 | 0.00 | 0.00 | 0.00 | 57 | 1018.4 |
| 20260902181544 | 94 | 111 | 1.7 | 7.0 | 0.00 | 0.00 | 0.00 | 56 | 1018.5 |
| 20260902180103 | 94 | 227 | 1.7 | 7.0 | 0.00 | 0.00 | 0.00 | 58 | 1018.6 |
| 20260902174544 | 93 | 258 | 1.7 | 7.8 | 0.00 | 0.00 | 0.00 | 59 | 1018.7 |
| 20260902173054 | 92 | 285 | 0.9 | 6.1 | 0.00 | 0.00 | 0.00 | 63 | 1018.9 |
| 20260902171550 | 92 | 141 | 1.7 | 4.3 | 0.00 | 0.00 | 0.00 | 63 | 1019.1 |
| 20260902170042 | 92 | 196 | 3.5 | 10.4 | 0.00 | 0.00 | 0.00 | 63 | 1019.2 |
| 20260902164541 | 91 | 149 | 3.5 | 7.0 | 0.00 | 0.00 | 0.00 | 64 | 1019.4 |
| 20260902163040 | 91 | 0 | 2.6 | 7.8 | 0.00 | 0.00 | 0.00 | 64 | 1019.3 |
| 20260902161552 | 92 | 285 | 1.7 | 6.1 | 0.00 | 0.00 | 0.00 | 63 | 1019.4 |
| 20260902160040 | 91 | 279 | 0.9 | 5.2 | 0.00 | 0.00 | 0.00 | 64 | 1019.5 |
| 20260902154548 | 89 | 280 | 3.5 | 7.0 | 0.00 | 0.00 | 0.00 | 66 | 1019.7 |
| 20260902153044 | 89 | 295 | 1.7 | 3.5 | 0.00 | 0.00 | 0.00 | 66 | 1019.8 |
| 20260902151542 | 89 | 240 | 0.9 | 3.5 | 0.00 | 0.00 | 0.00 | 68 | 1019.8 |
| 20260902150053 | 88 | 194 | 0.9 | 4.3 | 0.00 | 0.00 | 0.00 | 71 | 1019.9 |
| 20260902144546 | 86 | 213 | 0.9 | 5.2 | 0.00 | 0.00 | 0.00 | 72 | 1019.7 |
| 20260902143041 | 85 | 222 | 1.7 | 3.5 | 0.00 | 0.00 | 0.00 | 74 | 1019.8 |
| 20260902141551 | 84 | 207 | 0.0 | 3.5 | 0.00 | 0.00 | 0.00 | 76 | 1019.7 |
| 20260902140046 | 83 | 290 | 0.9 | 4.3 | 0.00 | 0.00 | 0.00 | 77 | 1019.7 |
| 20260902134547 | 82 | 0 | 0.0 | 3.5 | 0.00 | 0.00 | 0.00 | 79 | 1019.7 |
| 20260902133041 | 81 | 0 | 0.0 | 3.5 | 0.00 | 0.00 | 0.00 | 81 | 1019.7 |
| 20260902131540 | 80 | 192 | 0.9 | 2.6 | 0.00 | 0.00 | 0.00 | 81 | 1019.8 |
| 20260902130051 | 79 | 340 | 0.9 | 4.3 | 0.00 | 0.00 | 0.00 | 82 | 1019.5 |
| 20260902124542 | 78 | 182 | 0.9 | 2.6 | 0.00 | 0.00 | 0.00 | 84 | 1019.5 |
| 20260902123057 | 77 | 197 | 0.9 | 2.6 | 0.00 | 0.00 | 0.00 | 85 | 1019.4 |
| 20260902121544 | 75 | 184 | 0.0 | 1.7 | 0.00 | 0.00 | 0.00 | 88 | 1019.4 |
| 20260902120040 | 74 | 0 | 0.0 | 0.0 | 0.00 | 0.00 | 0.00 | 89 | 1019.2 |
| 20260902114550 | 73 | 0 | 0.0 | 1.7 | 0.00 | 0.00 | 0.00 | 89 | 1019.1 |
| 20260902113052 | 73 | 0 | 0.0 | 0.0 | 0.00 | 0.00 | 0.00 | 89 | 1018.9 |
| 20260902111547 | 73 | 0 | 0.0 | 1.7 | 0.00 | 0.00 | 0.00 | 89 | 1018.9 |
| 20260902110055 | 73 | 0 | 0.0 | 0.0 | 0.00 | 0.00 | 0.00 | 89 | 1018.8 |
| 20260902104553 | 73 | 0 | 0.0 | 0.0 | 0.00 | 0.00 | 0.00 | 90 | 1018.9 |
| 20260902103045 | 73 | 0 | 0.0 | 0.0 | 0.00 | 0.00 | 0.00 | 90 | 1018.8 |
| 20260902101540 | 73 | 0 | 0.0 | 0.0 | 0.00 | 0.00 | 0.00 | 90 | 1018.7 |
| 20260902100053 | 73 | 0 | 0.0 | 0.0 | 0.00 | 0.00 | 0.00 | 89 | 1018.6 |
| 20260902094546 | 74 | 0 | 0.0 | 0.0 | 0.00 | 0.00 | 0.00 | 89 | 1018.7 |
| 20260902093043 | 74 | 0 | 0.0 | 0.0 | 0.00 | 0.00 | 0.00 | 89 | 1018.7 |
| 20260902091540 | 74 | 0 | 0.0 | 0.0 | 0.00 | 0.00 | 0.00 | 88 | 1018.6 |
| 20260902090047 | 74 | 0 | 0.0 | 0.0 | 0.00 | 0.00 | 0.00 | 88 | 1018.6 |
| 20260902084551 | 74 | 0 | 0.0 | 0.0 | 0.00 | 0.00 | 0.00 | 88 | 1018.4 |
| 20260902083043 | 75 | 0 | 0.0 | 0.0 | 0.00 | 0.00 | 0.00 | 87 | 1018.1 |
| 20260902081601 | 75 | 0 | 0.0 | 0.0 | 0.00 | 0.00 | 0.00 | 87 | 1018.0 |
| 20260902080046 | 75 | 0 | 0.0 | 0.0 | 0.00 | 0.00 | 0.00 | 87 | 1018.0 |
| 20260902074541 | 75 | 0 | 0.0 | 0.0 | 0.00 | 0.00 | 0.00 | 86 | 1017.9 |
| 20260902073050 | 76 | 0 | 0.0 | 0.0 | 0.00 | 0.00 | 0.00 | 86 | 1017.9 |
| 20260902071547 | 76 | 0 | 0.0 | 0.0 | 0.00 | 0.00 | 0.00 | 86 | 1017.8 |
| 20260902070046 | 76 | 0 | 0.0 | 0.0 | 0.00 | 0.00 | 0.00 | 85 | 1017.9 |
| 20260902064548 | 76 | 0 | 0.0 | 0.0 | 0.00 | 0.00 | 0.00 | 85 | 1017.9 |
| 20260902063052 | 77 | 0 | 0.0 | 0.0 | 0.00 | 0.00 | 0.00 | 84 | 1018.0 |
| 20260902061602 | 77 | 0 | 0.0 | 0.0 | 0.00 | 0.00 | 0.00 | 84 | 1018.0 |
| 20260902060041 | 77 | 0 | 0.0 | 0.0 | 0.00 | 0.00 | 0.00 | 83 | 1018.0 |
| 20260902054553 | 78 | 0 | 0.0 | 0.0 | 0.00 | 0.00 | 0.00 | 83 | 1018.0 |
| 20260902053047 | 78 | 0 | 0.0 | 1.7 | 0.00 | 0.00 | 0.00 | 82 | 1018.1 |
| 20260902051540 | 78 | 0 | 0.0 | 1.7 | 0.00 | 0.00 | 0.00 | 81 | 1018.0 |
| 20260902050041 | 78 | 0 | 0.0 | 1.7 | 0.00 | 0.00 | 0.00 | 81 | 1018.0 |
| 20260902044546 | 79 | 252 | 0.0 | 1.7 | 0.00 | 0.00 | 0.00 | 81 | 1018.1 |
| 20260902043044 | 79 | 0 | 0.0 | 0.0 | 0.00 | 0.00 | 0.00 | 81 | 1018.1 |
| 20260902041542 | 79 | 0 | 0.0 | 0.0 | 0.00 | 0.00 | 0.00 | 80 | 1018.1 |
| 20260902040041 | 80 | 0 | 0.0 | 0.0 | 0.00 | 0.00 | 0.00 | 79 | 1018.1 |
| 20260902034547 | 80 | 0 | 0.0 | 1.7 | 0.00 | 0.00 | 0.00 | 79 | 1018.2 |
| 20260902033045 | 80 | 0 | 0.0 | 0.0 | 0.00 | 0.00 | 0.00 | 79 | 1018.1 |
| 20260902031554 | 81 | 0 | 0.0 | 1.7 | 0.00 | 0.00 | 0.00 | 79 | 1018.0 |
| 20260902030050 | 81 | 0 | 0.0 | 1.7 | 0.00 | 0.00 | 0.00 | 78 | 1018.0 |
| 20260902024545 | 81 | 0 | 0.0 | 0.0 | 0.00 | 0.00 | 0.00 | 78 | 1018.1 |
| 20260902023044 | 81 | 0 | 0.0 | 0.0 | 0.00 | 0.00 | 0.00 | 78 | 1018.0 |
| 20260902021543 | 82 | 0 | 0.0 | 0.0 | 0.00 | 0.00 | 0.00 | 78 | 1018.1 |
| 20260902020041 | 82 | 0 | 0.0 | 0.0 | 0.00 | 0.00 | 0.00 | 77 | 1018.0 |
| 20260902014544 | 83 | 0 | 0.0 | 0.0 | 0.00 | 0.00 | 0.00 | 75 | 1018.0 |
| 20260902013051 | 83 | 0 | 0.0 | 0.0 | 0.00 | 0.00 | 0.00 | 74 | 1017.9 |
| 20260902011551 | 84 | 0 | 0.0 | 0.0 | 0.00 | 0.00 | 0.00 | 73 | 1017.8 |
| 20260902010105 | 85 | 0 | 0.0 | 0.0 | 0.00 | 0.00 | 0.00 | 72 | 1017.6 |
| 20260902004542 | 86 | 0 | 0.0 | 0.0 | 0.00 | 0.00 | 0.00 | 71 | 1017.5 |
| 20260902003050 | 86 | 0 | 0.0 | 1.7 | 0.00 | 0.00 | 0.00 | 70 | 1017.6 |
| 20260902001544 | 87 | 0 | 0.0 | 1.7 | 0.00 | 0.00 | 0.00 | 68 | 1017.6 |
| 20260902000053 | 89 | 264 | 0.0 | 0.9 | 0.00 | 0.00 | 0.00 | 66 | 1017.7 |
| 20260901234552 | 90 | 0 | 0.0 | 0.0 | 0.00 | 0.00 | 0.00 | 65 | 1017.7 |
| 20260901233042 | 90 | 0 | 0.0 | 1.7 | 0.00 | 0.00 | 0.00 | 62 | 1017.8 |
| 20260901231542 | 91 | 0 | 0.0 | 1.7 | 0.00 | 0.00 | 0.00 | 61 | 1017.8 |
| 20260901230041 | 92 | 193 | 0.0 | 1.7 | 0.00 | 0.00 | 0.00 | 59 | 1017.7 |
| 20260901224552 | 92 | 0 | 0.0 | 3.5 | 0.00 | 0.00 | 0.00 | 57 | 1017.7 |
| 20260901223041 | 94 | 208 | 0.9 | 2.6 | 0.00 | 0.00 | 0.00 | 56 | 1017.7 |
| 20260901221554 | 94 | 271 | 0.9 | 4.3 | 0.00 | 0.00 | 0.00 | 54 | 1017.7 |
| 20260901220046 | 94 | 237 | 0.9 | 3.5 | 0.00 | 0.00 | 0.00 | 56 | 1017.6 |
| 20260901214556 | 93 | 202 | 1.7 | 5.2 | 0.00 | 0.00 | 0.00 | 55 | 1017.6 |